GW6539 Weather Reports


time (UTC)temp
C
wind
direction
speed
KPH
gust
KPH
rain 1hr
cm
rain 24hr
cm
rain mn
cm
humidity
%
barometer
mb
20260509174250 26 119 16.1 24.1 0.00 0.08 0.08 88 1010.5
20260509173746 26 132 16.1 22.5 0.00 0.08 0.08 87 1010.5
20260509173242 26 128 17.7 25.7 0.00 0.08 0.08 87 1010.5
20260509172738 26 121 19.3 27.4 0.00 0.08 0.08 87 1010.5
20260509172235 26 125 14.5 19.3 0.00 0.08 0.08 88 1010.5
20260509171730 26 117 14.5 20.9 0.00 0.05 0.05 88 1010.8
20260509171227 27 125 11.3 17.7 0.00 0.05 0.05 87 1010.8
20260509170723 27 125 16.1 24.1 0.00 0.05 0.05 86 1010.8
20260509170219 27 127 14.5 19.3 0.00 0.03 0.03 86 1011.1
20260509165718 27 135 9.7 16.1 0.00 0.03 0.03 85 1011.1
20260509165213 27 127 11.3 22.5 0.00 0.03 0.03 84 1011.1
20260509164709 27 123 17.7 29.0 0.00 0.03 0.03 84 1010.8
20260509164205 27 115 14.5 19.3 0.00 0.03 0.03 85 1010.8
20260509163703 27 124 19.3 25.7 0.00 0.03 0.03 86 1010.8
20260509163159 26 131 16.1 20.9 0.00 0.03 0.03 86 1010.8
20260509162657 26 116 14.5 22.5 0.00 0.03 0.03 86 1010.8
20260509162152 26 123 14.5 20.9 0.00 0.03 0.03 86 1010.8
20260509161648 27 114 16.1 24.1 0.00 0.03 0.03 87 1010.8
20260509161144 27 109 17.7 25.7 0.00 0.03 0.03 87 1011.1
20260509160640 27 121 12.9 17.7 0.00 0.03 0.03 86 1011.1
20260509160135 27 115 17.7 29.0 0.00 0.03 0.03 87 1011.5
20260509155632 27 121 16.1 27.4 0.00 0.03 0.03 88 1011.5
20260509155128 27 116 20.9 30.6 0.00 0.03 0.03 88 1011.5
20260509154624 27 120 19.3 30.6 0.00 0.03 0.03 87 1011.5
20260509154121 26 115 14.5 20.9 0.00 0.03 0.03 87 1011.5
20260509153618 26 120 16.1 20.9 0.00 0.03 0.03 87 1011.1
20260509153115 26 118 14.5 20.9 0.00 0.03 0.03 88 1011.1
20260509152611 26 117 14.5 19.3 0.00 0.03 0.03 88 1011.1
20260509152108 26 111 17.7 25.7 0.00 0.03 0.03 88 1011.5
20260509151604 26 106 16.1 22.5 0.00 0.03 0.03 88 1011.8
20260509151102 26 128 11.3 20.9 0.00 0.03 0.03 89 1011.8
20260509150559 26 118 12.9 17.7 0.00 0.03 0.03 88 1011.8
20260509150058 26 113 12.9 17.7 0.00 0.03 0.03 89 1011.8
20260509145553 26 121 14.5 20.9 0.00 0.03 0.03 89 1011.8
20260509145049 26 109 12.9 19.3 0.00 0.03 0.03 89 1011.8
20260509144546 26 119 8.0 9.7 0.00 0.03 0.03 89 1012.2
20260509144043 26 109 8.0 12.9 0.00 0.03 0.03 89 1012.2
20260509143540 26 121 11.3 16.1 0.00 0.03 0.03 89 1012.2
20260509143038 26 114 12.9 20.9 0.00 0.03 0.03 90 1012.5
20260509142533 26 100 9.7 14.5 0.00 0.03 0.03 89 1012.5
20260509142029 26 94 12.9 19.3 0.00 0.03 0.03 88 1012.5
20260509141525 26 115 17.7 25.7 0.00 0.03 0.03 88 1012.5
20260509141022 26 113 12.9 19.3 0.00 0.00 0.00 88 1012.5
20260509140519 26 95 17.7 27.4 0.00 0.00 0.00 88 1012.5
20260509140017 26 115 17.7 24.1 0.00 6.22 6.22 88 1012.8
20260509135514 26 102 19.3 33.8 0.00 6.22 6.22 88 1012.5
20260509135011 26 103 16.1 25.7 0.00 6.22 6.22 88 1012.8
20260509134508 26 109 16.1 24.1 0.00 6.22 6.22 87 1012.8
20260509134006 26 119 14.5 20.9 0.00 6.22 6.22 87 1012.8
20260509133502 26 111 11.3 17.7 0.00 6.22 6.22 88 1012.8
20260509133000 26 109 14.5 22.5 0.00 6.22 6.22 89 1012.5
20260509132459 26 91 17.7 24.1 0.00 6.22 6.22 88 1012.5
20260509131955 26 107 16.1 29.0 0.00 6.22 6.22 88 1012.5
20260509131452 26 85 14.5 20.9 0.00 6.22 6.22 87 1012.5
20260509130949 26 92 19.3 24.1 0.00 6.22 6.22 88 1012.8
20260509130444 26 96 14.5 19.3 0.00 6.22 6.22 87 1012.5
20260509125942 26 105 17.7 25.7 0.00 6.22 6.22 87 1012.5
20260509125438 26 105 8.0 14.5 0.00 6.22 6.22 87 1012.5
20260509124934 26 116 14.5 20.9 0.00 6.22 6.22 88 1012.2
20260509124431 26 122 11.3 17.7 0.00 6.22 6.22 88 1012.2
20260509123929 26 109 12.9 24.1 0.00 6.22 6.22 88 1012.2
20260509123426 26 109 14.5 20.9 0.00 6.22 6.22 88 1012.2
20260509122922 26 111 14.5 17.7 0.00 6.22 6.22 88 1012.2
20260509122419 26 107 14.5 24.1 0.00 6.22 6.22 88 1012.2
20260509121915 26 103 19.3 30.6 0.00 6.22 6.22 88 1012.2
20260509121413 26 105 19.3 29.0 0.00 6.22 6.22 88 1012.2
20260509120911 26 124 12.9 20.9 0.00 6.22 6.22 89 1012.5
20260509120408 26 103 12.9 17.7 0.00 6.22 6.22 88 1012.2
20260509115906 26 99 20.9 29.0 0.00 6.22 6.22 89 1011.8
20260509115403 26 115 14.5 19.3 0.00 6.22 6.22 89 1012.2
20260509114901 26 108 17.7 25.7 0.00 6.22 6.22 88 1011.8
20260509114359 26 106 19.3 27.4 0.00 6.22 6.22 89 1011.8
20260509113858 26 117 12.9 19.3 0.00 6.22 6.22 89 1011.8
20260509113355 26 100 16.1 22.5 0.00 6.22 6.22 89 1011.8
20260509112851 26 113 14.5 22.5 0.00 6.22 6.22 89 1011.8
20260509112348 26 100 14.5 22.5 0.00 6.22 6.22 89 1011.5
20260509111846 26 92 17.7 29.0 0.00 6.22 6.22 89 1011.5
20260509111342 26 110 14.5 19.3 0.00 6.22 6.22 90 1011.8
20260509110840 26 113 17.7 32.2 0.00 6.22 6.22 90 1011.8
20260509110336 26 112 14.5 17.7 0.00 6.20 6.20 89 1011.8
20260509105835 26 109 20.9 27.4 0.00 6.20 6.20 89 1011.8
20260509105332 26 119 14.5 25.7 0.00 6.20 6.20 88 1011.8
20260509104829 26 118 14.5 22.5 0.00 6.20 6.20 89 1011.8
20260509104325 26 112 14.5 22.5 0.00 6.20 6.20 89 1011.8
20260509103823 26 118 19.3 27.4 0.00 6.20 6.20 89 1011.5
20260509103320 26 120 12.9 19.3 0.00 6.20 6.20 89 1011.5
20260509102820 26 111 14.5 22.5 0.00 6.20 6.20 89 1011.5
20260509102316 26 115 19.3 30.6 0.00 6.20 6.20 88 1011.5
20260509101812 26 112 16.1 27.4 0.00 6.20 6.20 89 1011.5
20260509101308 26 123 19.3 29.0 0.00 6.20 6.20 89 1011.5
20260509100806 26 111 24.1 37.0 0.00 6.20 6.20 90 1011.1
20260509100303 26 119 25.7 33.8 0.00 6.20 6.20 90 1011.1
20260509095759 26 126 22.5 33.8 0.00 6.20 6.20 90 1011.1
20260509095257 26 124 20.9 33.8 0.00 6.20 6.20 90 1011.1
20260509094754 26 109 24.1 37.0 0.00 6.20 6.20 90 1011.1
20260509094250 26 112 24.1 32.2 0.00 6.20 6.20 90 1011.1
20260509093748 26 125 22.5 40.2 0.00 6.20 6.20 90 1011.1
20260509093245 26 119 22.5 35.4 0.00 6.20 6.20 90 1010.8
20260509092744 26 117 20.9 37.0 0.00 6.20 6.20 90 1010.8
20260509092241 25 115 20.9 41.8 0.00 6.20 6.20 90 1010.8
20260509091739 25 120 27.4 43.5 0.00 6.20 6.20 90 1010.5
20260509091235 25 113 16.1 24.1 0.00 6.20 6.20 91 1010.8
20260509090733 25 112 14.5 22.5 1.19 6.17 6.17 90 1010.8
20260509090230 25 103 19.3 27.4 0.00 6.17 6.17 90 1010.8
20260509085728 25 119 20.9 30.6 1.19 6.15 6.15 90 1010.8
20260509085225 25 128 16.1 24.1 0.00 6.15 6.15 90 1010.5
20260509084721 25 121 17.7 33.8 0.00 6.15 6.15 91 1010.5
20260509084218 25 120 27.4 38.6 0.00 6.15 6.15 91 1010.5
20260509083716 25 130 20.9 30.6 0.00 6.15 6.15 91 1010.5
20260509083212 25 125 25.7 38.6 0.00 6.15 6.15 91 1010.5
20260509082709 26 125 17.7 27.4 0.00 6.12 6.12 91 1010.1
20260509082206 26 104 19.3 25.7 0.00 6.07 6.07 92 1010.1
20260509081702 25 121 19.3 30.6 0.00 6.05 6.05 92 1010.1
20260509081200 25 127 17.7 24.1 0.00 5.99 5.99 92 1009.8
20260509080658 25 122 22.5 32.2 1.19 5.89 5.89 92 1009.8
20260509080155 25 121 17.7 24.1 2.39 5.66 5.66 92 1009.8
20260509075654 25 127 22.5 35.4 0.00 5.56 5.56 92 1009.8
20260509075151 25 129 19.3 30.6 0.00 5.51 5.51 91 1009.8
20260509074648 25 131 20.9 35.4 0.00 5.49 5.49 91 1009.4
20260509074144 25 132 20.9 32.2 1.19 5.46 5.46 91 1009.4
20260509073641 26 127 25.7 40.2 0.00 5.46 5.46 91 1009.8
20260509073137 26 115 19.3 35.4 0.00 5.44 5.44 92 1009.4
20260509072634 26 132 14.5 20.9 0.00 5.41 5.41 92 1009.8
20260509072131 26 119 16.1 24.1 0.00 5.38 5.38 92 1009.4
20260509071628 26 118 17.7 29.0 0.00 5.36 5.36 93 1009.4
20260509071125 25 120 17.7 27.4 1.19 5.33 5.33 92 1009.4
20260509070622 25 125 12.9 20.9 0.00 5.31 5.31 92 1009.4
20260509070118 25 108 20.9 29.0 2.39 5.16 5.16 92 1009.4
20260509065614 25 102 24.1 40.2 0.00 5.05 5.05 92 1009.1
20260509065110 25 104 16.1 25.7 1.19 4.93 4.93 92 1009.1
20260509064608 25 126 20.9 37.0 2.39 4.67 4.67 92 1009.4
20260509064106 25 125 19.3 29.0 1.19 4.55 4.55 92 1009.4
20260509063602 25 146 20.9 37.0 1.19 4.42 4.42 92 1009.4
20260509063059 25 128 20.9 35.4 1.19 4.29 4.29 92 1009.4
20260509062556 25 126 16.1 27.4 2.39 4.17 4.17 92 1009.4
20260509062053 25 133 27.4 40.2 3.61 3.96 3.96 92 1009.4
20260509061550 25 129 24.1 43.5 5.99 3.45 3.45 91 1009.4
20260509061047 25 123 20.9 33.8 4.80 3.10 3.10 91 1009.1
20260509060545 25 131 24.1 35.4 3.61 2.87 2.87 91 1009.1
20260509060040 25 142 19.3 27.4 4.80 2.59 2.59 91 1008.8
20260509055536 25 110 19.3 27.4 0.00 2.39 2.39 91 1008.8
20260509055032 25 106 22.5 32.2 1.19 2.29 2.29 91 1008.8
20260509054529 25 110 27.4 37.0 1.19 2.16 2.16 91 1008.8
20260509054027 25 118 27.4 48.3 1.19 2.03 2.03 91 1008.8
20260509053525 26 116 24.1 40.2 0.00 2.01 2.01 91 1008.8
20260509053022 26 117 22.5 35.4 2.39 1.88 1.88 91 1008.8
20260509052519 26 117 20.9 33.8 0.00 1.80 1.80 91 1008.8
20260509052017 26 119 22.5 37.0 1.19 1.68 1.68 90 1008.8
20260509051515 26 105 27.4 40.2 2.39 1.52 1.52 90 1008.8
20260509051012 26 110 24.1 35.4 0.00 1.45 1.45 89 1008.8
20260509050508 26 113 20.9 29.0 0.00 1.40 1.40 90 1008.8
20260509050005 26 117 22.5 32.2 0.00 1.40 1.40 90 1008.3
20260509045502 26 109 25.7 43.5 0.00 1.40 1.40 90 1008.3
20260509044959 26 102 22.5 33.8 0.00 1.40 1.40 90 1008.8
20260509044457 26 114 14.5 20.9 0.00 1.35 1.35 90 1009.1
20260509043954 26 124 20.9 30.6 1.19 1.27 1.27 89 1009.1
20260509043449 26 119 17.7 24.1 0.00 1.22 1.22 89 1009.1
20260509042945 26 127 16.1 25.7 0.00 1.22 1.22 89 1008.8
20260509042443 26 120 27.4 43.5 3.61 1.04 1.04 89 1009.1
20260509041938 27 115 22.5 35.4 0.00 1.02 1.02 88 1008.8
20260509041435 27 110 17.7 30.6 0.00 1.02 1.02 88 1008.8
20260509040934 27 111 29.0 37.0 1.19 0.97 0.97 88 1009.1
20260509040432 27 103 16.1 24.1 0.00 0.94 0.94 88 1009.1
20260509035928 26 112 17.7 27.4 0.00 0.91 0.91 88 1009.4
20260509035425 26 135 14.5 22.5 0.00 0.89 0.89 87 1009.4
20260509034921 27 115 22.5 30.6 0.00 0.89 0.89 86 1009.4
20260509034419 27 110 29.0 45.1 0.00 0.89 0.89 87 1009.4
20260509033916 26 118 29.0 43.5 0.00 0.89 0.89 88 1009.4
20260509033413 26 102 19.3 24.1 0.00 0.89 0.89 88 1009.4
20260509032909 26 95 14.5 22.5 0.00 0.89 0.89 88 1009.4
20260509032407 26 96 22.5 30.6 0.00 0.89 0.89 88 1009.8
20260509031905 26 96 20.9 33.8 0.00 0.89 0.89 88 1009.8
20260509031402 26 104 24.1 32.2 0.00 0.89 0.89 88 1009.8
20260509030859 26 99 22.5 30.6 0.00 0.89 0.89 88 1009.8
20260509030357 26 95 19.3 25.7 0.00 0.89 0.89 88 1009.8
20260509025854 26 99 25.7 49.9 0.00 0.89 0.89 88 1009.4
20260509025349 26 110 19.3 35.4 0.00 0.89 0.89 88 1009.8
20260509024845 26 115 19.3 24.1 0.00 0.89 0.89 88 1010.1
20260509024341 26 112 17.7 27.4 0.00 0.89 0.89 89 1010.1
20260509023838 26 111 16.1 22.5 0.00 0.89 0.89 89 1010.1
20260509023336 26 112 22.5 30.6 0.00 0.89 0.89 89 1010.5
20260509022832 26 114 25.7 37.0 1.19 0.86 0.86 89 1010.1
20260509022330 26 110 29.0 40.2 0.00 0.86 0.86 89 1010.1
20260509021826 26 111 24.1 32.2 0.00 0.86 0.86 89 1010.1
20260509021323 26 113 20.9 33.8 0.00 0.86 0.86 90 1010.5
20260509020821 26 117 19.3 32.2 0.00 0.86 0.86 89 1010.1
20260509020319 26 118 29.0 46.7 0.00 0.81 0.81 89 1010.5
20260509015816 26 116 19.3 27.4 0.00 0.79 0.79 88 1010.5
20260509015314 27 120 27.4 49.9 0.00 0.79 0.79 87 1010.5
20260509014811 27 124 22.5 43.5 0.00 0.79 0.79 86 1010.5
20260509014308 27 120 24.1 33.8 0.00 0.79 0.79 86 1010.5
20260509013804 27 107 24.1 37.0 0.00 0.79 0.79 87 1010.5
20260509013301 27 109 19.3 25.7 0.00 0.79 0.79 87 1010.5
20260509012757 26 117 25.7 38.6 0.00 0.79 0.79 88 1010.5
20260509012254 26 110 14.5 20.9 0.00 0.79 0.79 88 1010.5
20260509011751 26 112 22.5 29.0 0.00 0.79 0.79 87 1010.8
20260509011248 26 112 24.1 32.2 0.00 0.79 0.79 87 1010.5
20260509010746 26 109 20.9 30.6 0.00 0.79 0.79 87 1010.5
20260509010242 26 114 27.4 41.8 0.00 0.79 0.79 87 1010.5
20260509005741 26 124 16.1 22.5 0.00 0.79 0.79 87 1010.5
20260509005238 26 127 17.7 25.7 0.00 0.79 0.79 88 1010.5
20260509004737 26 110 20.9 32.2 0.00 0.79 0.79 88 1010.5
20260509004235 26 108 19.3 27.4 0.00 0.79 0.79 88 1010.5
20260509003733 26 112 24.1 40.2 0.00 0.79 0.79 88 1010.5
20260509003230 26 107 22.5 33.8 0.00 0.79 0.79 88 1010.5
20260509002727 27 110 29.0 43.5 0.00 0.79 0.79 88 1010.8
20260509002225 27 119 14.5 27.4 0.00 0.79 0.79 88 1010.8
20260509001722 27 101 17.7 27.4 0.00 0.79 0.79 88 1010.8
20260509001218 27 106 16.1 27.4 0.00 0.79 0.79 87 1010.8
20260509000716 27 119 20.9 33.8 0.00 0.79 0.79 85 1010.8
20260509000213 26 124 22.5 35.4 0.00 0.79 0.79 85 1010.8
20260508235710 26 127 25.7 32.2 0.00 0.76 0.76 87 1010.5
20260508235206 26 116 25.7 40.2 0.00 0.76 0.76 88 1010.5
20260508234704 26 126 19.3 29.0 0.00 0.76 0.76 88 1010.5
20260508234200 26 137 12.9 22.5 0.00 0.76 0.76 88 1010.5
20260508233700 26 130 16.1 25.7 0.00 0.74 0.74 88 1010.5
20260508233157 26 129 24.1 32.2 0.00 0.74 0.74 89 1010.5
20260508232654 26 123 17.7 27.4 0.00 0.74 0.74 89 1010.5
20260508232150 26 124 19.3 27.4 0.00 0.74 0.74 89 1010.5
20260508231649 26 125 20.9 33.8 0.00 0.74 0.74 89 1010.1
20260508231145 26 130 14.5 20.9 0.00 0.74 0.74 89 1010.1
20260508230642 26 148 14.5 24.1 0.00 0.74 0.74 89 1009.8
20260508230138 26 142 14.5 27.4 0.00 0.74 0.74 89 1009.8
20260508225637 26 147 20.9 27.4 0.00 0.74 0.74 88 1010.1
20260508225132 26 143 19.3 27.4 0.00 0.74 0.74 88 1010.1
20260508224630 26 142 17.7 35.4 1.19 0.71 0.71 89 1010.1
20260508224128 26 141 24.1 38.6 0.00 0.71 0.71 90 1010.1
20260508223625 26 135 11.3 20.9 0.00 0.71 0.71 90 1010.1
20260508223122 26 129 17.7 24.1 0.00 0.71 0.71 90 1009.8
20260508222620 26 128 17.7 29.0 0.00 0.71 0.71 90 1009.8
20260508222116 26 124 22.5 30.6 0.00 0.71 0.71 89 1009.8
20260508221613 26 132 17.7 27.4 0.00 0.69 0.69 89 1009.4
20260508221109 26 129 19.3 33.8 0.00 0.69 0.69 89 1009.8
20260508220605 26 138 17.7 29.0 0.00 0.69 0.69 89 1009.8
20260508215559 26 132 20.9 38.6 0.00 0.66 0.66 89 1009.4
20260508215055 26 120 19.3 25.7 0.00 0.66 0.66 89 1009.4
20260508214553 25 132 16.1 24.1 0.00 0.66 0.66 89 1009.4
20260508214049 25 131 19.3 38.6 0.00 0.66 0.66 90 1009.4
20260508213546 25 131 20.9 27.4 0.00 0.66 0.66 90 1009.4
20260508213042 25 129 19.3 30.6 0.00 0.66 0.66 90 1009.1
20260508212539 25 133 25.7 40.2 0.00 0.66 0.66 91 1009.1
20260508212035 26 123 14.5 20.9 0.00 0.66 0.66 91 1008.8
20260508211531 25 132 20.9 37.0 0.00 0.66 0.66 91 1008.8
20260508211028 25 129 25.7 40.2 0.00 0.66 0.66 91 1008.8
20260508210524 25 130 25.7 40.2 0.00 0.66 0.66 90 1008.8
20260508210022 25 137 24.1 41.8 0.00 0.66 0.66 90 1008.3
20260508205518 25 131 27.4 41.8 0.00 0.66 0.66 90 1008.3
20260508205014 25 125 25.7 38.6 0.00 0.66 0.66 90 1008.0
20260508204512 25 125 27.4 46.7 0.00 0.66 0.66 90 1008.0
20260508204007 25 135 22.5 41.8 0.00 0.64 0.64 90 1008.3
20260508203503 25 123 24.1 46.7 0.00 0.61 0.61 91 1008.3
20260508202959 25 121 29.0 41.8 1.19 0.56 0.56 91 1008.0
20260508202456 25 118 22.5 32.2 0.00 0.51 0.51 91 1008.0
20260508201953 25 123 27.4 38.6 1.19 0.43 0.43 91 1008.0
20260508201450 25 113 20.9 32.2 1.19 0.38 0.38 91 1008.0
20260508200947 25 124 32.2 48.3 1.19 0.30 0.30 90 1008.0
20260508200444 25 119 32.2 45.1 1.19 0.18 0.18 90 1007.7
20260508195938 26 123 29.0 54.7 0.00 0.13 0.13 89 1007.7
20260508195437 26 111 30.6 48.3 0.00 0.08 0.08 88 1007.7
20260508194932 26 123 30.6 45.1 0.00 0.08 0.08 88 1007.7
20260508194430 26 118 27.4 43.5 0.00 0.08 0.08 87 1007.3
20260508193926 26 111 27.4 51.5 0.00 0.08 0.08 86 1007.3
20260508193424 26 115 24.1 35.4 0.00 0.08 0.08 85 1007.3
20260508192919 26 100 32.2 45.1 0.00 0.08 0.08 85 1007.0
20260508192417 26 98 27.4 48.3 0.00 0.08 0.08 85 1007.0
20260508191914 26 105 25.7 37.0 0.00 0.08 0.08 84 1007.0
20260508191411 27 116 40.2 53.1 0.00 0.08 0.08 84 1007.3
20260508190908 27 111 30.6 46.7 0.00 0.08 0.08 84 1007.3
20260508190405 27 107 30.6 41.8 0.00 0.08 0.08 85 1007.3
20260508185901 27 105 24.1 41.8 0.00 0.08 0.08 85 1007.3
20260508185359 26 104 35.4 49.9 0.00 0.08 0.08 84 1007.3
20260508184856 27 106 35.4 54.7 0.00 0.08 0.08 83 1007.0
20260508184353 27 103 30.6 40.2 0.00 0.08 0.08 84 1007.3
20260508183849 27 113 25.7 37.0 0.00 0.08 0.08 85 1007.3
20260508183346 27 114 29.0 46.7 0.00 0.08 0.08 85 1007.0
20260508182842 27 123 22.5 33.8 0.00 0.08 0.08 84 1007.3
20260508182339 27 101 29.0 41.8 0.00 0.08 0.08 84 1007.3
20260508181834 27 102 29.0 43.5 0.00 0.08 0.08 85 1007.0
20260508181331 27 98 24.1 40.2 0.00 0.08 0.08 85 1007.0
20260508180828 27 104 22.5 35.4 0.00 0.08 0.08 85 1007.0
20260508180325 27 102 24.1 38.6 0.00 0.08 0.08 85 1006.6
20260508175821 27 94 30.6 41.8 0.00 0.08 0.08 84 1006.6
20260508175318 27 106 35.4 45.1 0.00 0.08 0.08 85 1006.6
20260508174816 27 96 29.0 41.8 0.00 0.08 0.08 85 1007.0